Location: Newark
(45.6833°N, 11.3833°E)
Time: 13:27:56
(UTC+00:00)

OTV 5 (USA 277) - Visible Passes

Search period start: 15 October 2019 00:00
Search period end: 25 October 2019 00:00
Orbit: 310 x 324 km, 54.5° (Epoch: 08 October)

Date Brightness Start Highest point End Pass type
(mag) Time Alt. Az. Time Alt. Az. Time Alt. Az.
15 Oct ? 03:53:05 16° N 03:53:52 18° NNE 03:55:51 10° ENE visible
16 Oct ? 04:07:19 18° NNW 04:08:40 26° NNE 04:11:04 10° E visible
17 Oct ? 04:21:37 19° NW 04:23:22 50° NNE 04:26:02 10° ESE visible
18 Oct ? 03:05:07 13° ENE 03:05:07 13° ENE 03:05:35 10° ENE visible
18 Oct ? 04:36:01 17° WNW 04:37:57 64° SW 04:40:39 10° SE visible
19 Oct ? 03:19:36 20° E 03:19:36 20° E 03:20:43 10° E visible
19 Oct ? 04:50:31 13° W 04:52:23 24° SW 04:54:40 10° SSE visible
20 Oct ? 03:34:13 25° ESE 03:34:13 25° ESE 03:35:31 10° ESE visible
20 Oct ? 05:06:26 10° WSW 05:06:40 10° SW 05:06:55 10° SW visible
21 Oct ? 03:48:58 18° SSE 03:48:58 18° SSE 03:49:52 10° SSE visible
